Location: Cambridge
(43.3830°N, 80.3170°W)
Time: 03:42:49
(UTC-05:00)

Envisat - Pass Details

Date: 25 October 2019
Orbit: 764 x 766 km, 98.1° (Epoch: 19 November)

Event Time Altitude Azimuth Distance (km) Brightness Sun altitude
Rises 20:23:41 0° 199° (SSW) 3,219 6.4 -22.6°
Reaches altitude 10° 20:26:23 10° 213° (SSW) 2,297 5.8 -23.1°
Maximum altitude 20:30:27 24° 267° (W) 1,546 5.3 -23.8°
Drops below altitude 10° 20:34:33 10° 320° (NW) 2,311 6.0 -24.6°
Sets 20:37:17 0° 335° (NNW) 3,242 6.7 -25.0°
